Findlay, OH

9:44 PM EDT on March 22, 2017 (GMT -0400)
Findlay

Weather History for KFDY - November, 2012

Change the Weather History Date:

Tuesday, November 20, 2012

  Actual Average Record
Temperature  
Mean Temperature 47 °F -  
Max Temperature 55 °F 47 °F 70 °F (1953)
Min Temperature 39 °F 31 °F 12 °F (1951)
Degree Days  
Heating Degree Days 18    
Moisture  
Dew Point 37 °F    
Average Humidity 66    
Maximum Humidity 86    
Minimum Humidity 49    
Precipitation  
Precipitation 0.00 in - - ()
Sea Level Pressure  
Sea Level Pressure 30.12 in    
Wind  
Wind Speed 3 mph (SE)    
Max Wind Speed 6 mph    
Max Gust Speed -    
Visibility 10 miles    
Events      
Averages and records for this station are not official NWS values.
T = Trace of Precipitation, MM = Missing Value Source: NWS Daily Summary

Daily Weather History Graph

Daily Weather History Graph

Search for Another Location

Airport or City:

Trip Planner

Search our weather history database for the weather conditions in past years. The results will help you decide how hot, cold, wet, or windy it might be!

Date:

Astronomy

Nov. 20, 2012 Rise Set
Actual Time 7:28 AM EST 5:11 PM EST
Civil Twilight 6:58 AM EST 5:41 PM EST
Nautical Twilight 6:25 AM EST 6:15 PM EST
Astronomical Twilight 5:52 AM EST 6:48 PM EST
Moon 1:00 PM EST (11/20) No Moon Set
Length of Visible Light 10h 43m
Length of Day
9h 43m
Waxing Crescent, 51% of the Moon is Illuminated
Nov 20
Waxing Crescent
Nov 28
Full
Dec 6
Last Quarter
Dec 13
New
Dec 20
First Quarter

Hourly Weather History & Observations

Time (EST) Temp. Windchill Dew Point Humidity Pressure Visibility Wind Dir Wind Speed Gust Speed Precip Events Conditions
12:53 AM 41.0 °F 38.0 °F 35.1 °F 79% 30.16 in 10.0 mi SE 4.6 mph - N/A   Clear
1:53 AM 43.0 °F 40.3 °F 35.1 °F 74% 30.14 in 10.0 mi SSE 4.6 mph - N/A   Scattered Clouds
2:53 AM 43.0 °F 40.3 °F 36.0 °F 76% 30.15 in 10.0 mi SSE 4.6 mph - N/A   Overcast
3:53 AM 42.1 °F 39.2 °F 36.0 °F 79% 30.14 in 10.0 mi SSE 4.6 mph - N/A   Partly Cloudy
4:53 AM 43.0 °F - 36.0 °F 76% 30.13 in 10.0 mi Calm Calm - N/A   Scattered Clouds
5:53 AM 43.0 °F - 35.1 °F 74% 30.14 in 10.0 mi Calm Calm - N/A   Clear
6:53 AM 42.1 °F - 35.1 °F 76% 30.14 in 10.0 mi Calm Calm - N/A   Mostly Cloudy
7:53 AM 39.9 °F 37.8 °F 36.0 °F 86% 30.14 in 10.0 mi SSE 3.5 mph - N/A   Scattered Clouds
8:53 AM 45.0 °F 42.6 °F 37.0 °F 74% 30.14 in 10.0 mi SE 4.6 mph - N/A   Mostly Cloudy
9:53 AM 48.9 °F - 37.0 °F 64% 30.13 in 10.0 mi Calm Calm - N/A   Partly Cloudy
10:53 AM 51.1 °F - 37.9 °F 61% 30.13 in 10.0 mi Calm Calm - N/A   Partly Cloudy
11:53 AM 53.1 °F - 37.0 °F 55% 30.12 in 10.0 mi Calm Calm - N/A   Overcast
12:53 PM 55.0 °F - 37.9 °F 53% 30.10 in 10.0 mi Calm Calm - N/A   Overcast
1:53 PM 55.9 °F - 37.0 °F 49% 30.08 in 10.0 mi SSE 3.5 mph - N/A   Overcast
2:53 PM 55.9 °F - 37.0 °F 49% 30.07 in 10.0 mi SSE 5.8 mph - N/A   Overcast
3:53 PM 55.0 °F - 39.0 °F 55% 30.07 in 10.0 mi SSE 5.8 mph - N/A   Overcast
4:53 PM 55.0 °F - 37.0 °F 51% 30.08 in 10.0 mi Calm Calm - N/A   Overcast
5:53 PM 51.1 °F - 39.0 °F 63% 30.10 in 10.0 mi Calm Calm - N/A   Overcast
6:53 PM 52.0 °F - 39.0 °F 61% 30.11 in 10.0 mi Calm Calm - N/A   Overcast
7:53 PM 50.0 °F - 39.0 °F 66% 30.12 in 10.0 mi ENE 3.5 mph - N/A   Overcast
8:53 PM 50.0 °F - 39.0 °F 66% 30.12 in 10.0 mi East 4.6 mph - N/A   Overcast
9:53 PM 48.9 °F - 39.9 °F 71% 30.13 in 10.0 mi ESE 3.5 mph - N/A   Overcast
10:53 PM 50.0 °F - 39.0 °F 66% 30.13 in 9.0 mi Calm Calm - N/A   Overcast
11:53 PM 48.0 °F - 39.0 °F 71% 30.13 in 9.0 mi South 4.6 mph - N/A   Overcast